This is the latest recevied weather packets stored in our database for station/object F4GQK-13. If no packets are shown the sender has not sent any weather packets the latest 10 day(s).
| Time | Temp. | Humidity | Pressure | Rain* | Wind** | Luminosity | Snow |
|---|---|---|---|---|---|---|---|
| 1776975606 | 11.11° C | 67% | 1024.2 hPa | 0 mm | - | 0 W/m² | - |
| 1776975306 | 11.11° C | 67% | 1024.2 hPa | 0 mm | - | 0 W/m² | - |
| 1776975006 | 11.11° C | 67% | 1024.3 hPa | 0 mm | - | 0 W/m² | - |
| 1776974705 | 11.67° C | 65% | 1024.2 hPa | 0 mm | - | 0 W/m² | - |
| 1776974406 | 11.67° C | 65% | 1024.4 hPa | 0 mm | - | 0 W/m² | - |
| 1776974106 | 11.67° C | 64% | 1024.3 hPa | 0 mm | - | 0 W/m² | - |
| 1776973806 | 12.22° C | 63% | 1024.2 hPa | 0 mm | - | 0 W/m² | - |
| 1776973506 | 12.22° C | 61% | 1024.3 hPa | 0 mm | - | 0 W/m² | - |
| 1776973205 | 12.78° C | 61% | 1024.3 hPa | 0 mm | - | 0 W/m² | - |
| 1776972905 | 12.78° C | 60% | 1024.1 hPa | 0 mm | - | 0 W/m² | - |
| 1776972605 | 13.33° C | 60% | 1024.2 hPa | 0 mm | - | 0 W/m² | - |
| 1776972306 | 13.33° C | 59% | 1024.1 hPa | 0 mm | - | 0 W/m² | - |
| 1776972005 | 13.33° C | 58% | 1024.1 hPa | 0 mm | - | 0 W/m² | - |
| 1776971705 | 13.89° C | 56% | 1023.9 hPa | 0 mm | - | 0 W/m² | - |
| 1776971405 | 14.44° C | 56% | 1024 hPa | 0 mm | - | 0 W/m² | - |
| 1776971104 | 14.44° C | 53% | 1024 hPa | 0 mm | - | 1 W/m² | - |
| 1776970805 | 15° C | 53% | 1023.9 hPa | 0 mm | - | 1 W/m² | - |
| 1776970505 | 15.56° C | 52% | 1024 hPa | 0 mm | - | 3 W/m² | - |
| 1776970205 | 16.11° C | 50% | 1024 hPa | 0 mm | - | 4 W/m² | - |
| 1776969904 | 16.11° C | 49% | 1023.8 hPa | 0 mm | - | 6 W/m² | - |
| 1776969605 | 16.67° C | 47% | 1023.8 hPa | 0 mm | - | 9 W/m² | - |
| 1776969307 | 17.22° C | 45% | 1024 hPa | 0 mm | - | 12 W/m² | - |
| 1776969006 | 17.78° C | 44% | 1023.8 hPa | 0 mm | - | 15 W/m² | - |
| 1776968709 | 18.33° C | 42% | 1023.9 hPa | 0 mm | - | 18 W/m² | - |
| 1776968405 | 18.33° C | 41% | 1023.8 hPa | 0 mm | - | 23 W/m² | - |
* Rain latest hour (hover to see other rain measurements)
** Current wind speed in m/s (hover to see current wind gust speed)